Powrót do katalogu

ONEWEB-0223

AktywnyŁącznośćPO
NORAD 48768·PAYLOAD·🇬🇧 United Kingdom

Wystrzelony May 28, 2021 z Vostochny Cosmodrome

Loading…

Następne Przeloty (najbliższe 24 godziny)

TLE

ŚwieżeSource: CelesTrak SupGP

Epoka: Sep 14, 2026, 13:58 UTC

1 48768C 21045B   26257.58211065 -.00001316  00000+0 -34988-2 0  2578
2 48768  87.8990 241.3701 0002040  74.2754  27.5467 13.15550636    16

Śledź ONEWEB-0223 w czasie rzeczywistym z AllMySat

Download on the App Store